TANYUSHA 1 (42911 NORAD) Tracking and Keplerian Element Data

This shows tracking and keplerian element data for the satellite.

Feedback or suggestion? Click here.




ElementValue
Catalog42911
NameTANYUSHA 1
Epoch Orbit5134
Epoch Day193.51901875
Epoch Year2018
RAAN236.4404
Inclination51.6342
Eccentricity0.0005468
Argument of Perigee312.51
Mean Anonmoly47.5433
Mean Motion15.661068
Decay Rate0.00014929
L11 42911U 98067NA 18193.51901875 .00014929 00000-0 14758-3 0 9998
L22 42911 051.6342 236.4404 0005468 312.5100 047.5433 15.66106800051340

Live tracking and technical data element details for TANYUSHA 1 (NORAD 42911). TANYUSHA 1 can be tracked NOW for your location showing map with azimuth and elevation plus other details from your city location.

Track the satellite on the map from your city or location and see movement details for azimuth, elevation, latitude, longitude, range, height, and movement on the map or in text.







IsCatalogInMostPopularTable: catalog: 42911, numindb: 97
Update: records affected: 1



GetName: 42911 TANYUSHA 1

Hit Count: updated at: Wed, 18 Jul 2018 20:26:06 GMT